Weather History for Lanai City, HI

Change the Weather History Date:

Monday, March 18, 2013

  Actual Average Record
Temperature  
Mean Temperature 66 °F -  
Max Temperature 78 °F 77 °F 82 °F (1999)
Min Temperature 55 °F 59 °F 53 °F (1955)
Cooling Degree Days 2    
Growing Degree Days 16 (Base 50)    
Moisture  
Dew Point 55 °F    
Average Humidity 68    
Maximum Humidity 93    
Minimum Humidity 47    
Precipitation  
Precipitation 0.00 in - - ()
Sea Level Pressure  
Sea Level Pressure 30.00 in    
Wind  
Wind Speed 7 mph (NE)    
Max Wind Speed 13 mph    
Max Gust Speed -    
Visibility 10 miles    
Events      
Averages and records for this station are not official NWS values.
T = Trace of Precipitation, MM = Missing Value Source: NWS Daily Summary

Daily Weather History Graph

Daily Weather History Graph

Search for Another Location

Airport:

Trip Planner

Search our weather history database for the weather conditions in past years. The results will help you decide how hot, cold, wet, or windy it might be!

Date:

Astronomy

Mar. 18, 2013 Rise Set
Actual Time 6:33 AM HST 6:38 PM HST
Civil Twilight 6:11 AM HST 7:00 PM HST
Nautical Twilight 5:45 AM HST 7:26 PM HST
Astronomical Twilight 5:19 AM HST 7:52 PM HST
Moon 11:23 AM HST (3/18) 12:05 AM HST (3/18)
Length of Visible Light 12h 49m
Length of Day
12h 05m
Waxing Crescent, 42% of the Moon is Illuminated
Mar 18
Waxing Crescent
Mar 19
First Quarter
Mar 26
Full
Apr 2
Last Quarter
Apr 9
New

Hourly Weather History & Observations

Time (HST) Temp. Dew Point Humidity Pressure Visibility Wind Dir Wind Speed Gust Speed Precip Events Conditions
12:56 AM 59.0 °F 54.0 °F 83% 30.03 in 10.0 mi NE 5.8 mph - N/A   Clear
1:56 AM 59.0 °F 54.0 °F 83% 30.01 in 10.0 mi ENE 6.9 mph - N/A   Clear
2:56 AM 56.8 °F 54.0 °F 90% 29.99 in 10.0 mi ENE 5.8 mph - N/A   Clear
3:56 AM 56.8 °F 52.9 °F 87% 29.99 in 10.0 mi NE 5.8 mph - N/A   Clear
4:56 AM 55.9 °F 54.0 °F 93% 29.99 in 10.0 mi NE 6.9 mph - N/A   Clear
5:56 AM 55.9 °F 52.9 °F 89% 30.00 in 10.0 mi East 8.1 mph - N/A   Clear
6:56 AM 56.8 °F 50.9 °F 80% 30.02 in 10.0 mi NNE 5.8 mph - N/A   Clear
7:56 AM 64.9 °F 55.9 °F 73% 30.04 in 10.0 mi ENE 3.5 mph - N/A   Clear
8:56 AM 70.9 °F 54.9 °F 57% 30.05 in 10.0 mi Variable 4.6 mph - N/A   Clear
9:56 AM 72.0 °F 55.9 °F 57% 30.04 in 10.0 mi WNW 10.4 mph - N/A   Mostly Cloudy
10:56 AM 74.8 °F 56.8 °F 53% 30.04 in 10.0 mi Variable 6.9 mph - N/A   Clear
11:56 AM 77.0 °F 56.8 °F 50% 30.01 in 10.0 mi Variable 5.8 mph - N/A   Clear
12:56 PM 74.8 °F 54.9 °F 50% 29.98 in 10.0 mi Variable 6.9 mph - N/A   Scattered Clouds
1:56 PM 78.8 °F 57.2 °F 47% 30.00 in 10.0 mi West 10.4 mph - N/A   Mostly Cloudy
2:56 PM 75.9 °F 56.8 °F 51% 29.96 in 10.0 mi WNW 10.4 mph - N/A   Partly Cloudy
3:56 PM 74.8 °F 55.9 °F 52% 29.95 in 10.0 mi West 8.1 mph - N/A   Clear
4:56 PM 74.8 °F 55.9 °F 52% 29.96 in 10.0 mi SSW 8.1 mph - N/A   Partly Cloudy
5:31 PM 71.6 °F 55.4 °F 57% 30.00 in 10.0 mi South 6.9 mph - N/A   Mostly Cloudy
5:45 PM 71.6 °F 55.4 °F 57% 30.00 in 10.0 mi SSW 9.2 mph - N/A   Scattered Clouds
5:56 PM 70.0 °F 55.9 °F 61% 29.98 in 10.0 mi SSW 6.9 mph - N/A   Partly Cloudy
6:56 PM 65.8 °F 54.9 °F 68% 30.00 in 10.0 mi SSE 4.6 mph - N/A   Clear
7:56 PM 63.0 °F 55.9 °F 78% 30.01 in 10.0 mi NE 6.9 mph - N/A   Clear
8:56 PM 63.9 °F 56.8 °F 78% 30.01 in 10.0 mi NNE 9.2 mph - N/A   Scattered Clouds
9:56 PM 64.9 °F 56.8 °F 75% 30.02 in 10.0 mi NE 9.2 mph - N/A   Mostly Cloudy
10:56 PM 63.9 °F 56.8 °F 78% 30.01 in 10.0 mi NE 12.7 mph - N/A   Mostly Cloudy
11:56 PM 63.9 °F 56.8 °F 78% 30.00 in 10.0 mi ENE 5.8 mph - N/A   Mostly Cloudy